COSMOS 1275 DEB

Satellite information

Favourite Embed

Satellite Type and Status

DEBRISIN ORBIT

Key statistics

Satellite COSMOS 1275 DEB at a glance.

Uptime

16104

Days in orbit

Revolutions

≈ 14.2

Per day

Orbit

LEO

Low Earth Orbit

Inclination

83.0

Latest

Satellite identification and parameters

Extended collection of information and parameters for COSMOS 1275 DEB.

Object identification

Identified? True

Debris? True

Object name: COSMOS 1275 DEB

International designator: 1981-053ME

Object number (NORAD): 19027

Object ID (CCSDS): 19027

Country: COMMONWEALTH OF INDEPENDENT STATES (CIS)

Current information (Y/N): Y

RCS size: SMALL

Orbital parameters

Period: 101.734 minutes

Inclination: 83.0021 deg

SMA: 7218.903 km

Apoapsis: 889.484 km

Periapsis: 792.052 km

RAAN: 141.3197 deg

Eccentricy: 0.0067484

Argument of periapsis: 106.9758 deg

Mean anomaly: 19.6795 deg

Mean motion: 14.15454554 rev/day

Mean motion (dot): 0.00003914 rev/day2

B* drag term: 0.0019535 1/REarth

Two-line elements (TLE)

Creation date: July 5, 2025, 5:45 p.m.

Reference frame: TEME

Reference center: EARTH

Epoch: July 5, 2025, 8:02 a.m. UTC

TLE line 0: 0 COSMOS 1275 DEB

TLE line 1: 1 19027U 81053ME 25186.33473633 .00003914 00000-0 19535-2 0 9992

TLE line 2: 2 19027 83.0021 141.3197 0067484 106.9758 19.6795 14.15454554 32703

Live tracking on map

Real-time ground track for satellite COSMOS 1275 DEB.

In-orbit conjunctions

A list of the most updated potential collisions computed for object COSMOS 1275 DEB.

Target Orbit TCA Probability of collision Miss distance Type
SCOUT X-4 DEB LEO 2025-05-11 17:09:05 0.0001163405 147.0 (m) DEBRIS
FENGYUN 1C DEB SSO 2024-08-04 19:12:31 0.0001641088 261.0 (m) DEBRIS

Associated space launch

Navigation satellite providing location information for the Tsiklon-B navigation system

COSMOS 1275 DEB was lifted into orbit during the mission ‘Kosmos-3M | Parus 27’, on board a Kosmos-3M space rocket.

The launch took place on June 4, 1981, 3:41 p.m. from 132/2.

For more information about the launch, click the button.

Launch to space Kosmos-3M | Parus 27
Kosmos-3M | Parus 27

Agency: N/A

Status: Launch Successful

Launch date: June 4, 1981, 3:41 p.m. UTC

Rocket: Kosmos-3M

Launch pad: 132/2

Location: Plesetsk Cosmodrome, Russian Federation

...

Latest news about this satellite

There are no fresh news available about this satellite. Check back as we update our databases every day.


Newsletter sign-up

Weekly statistics, charts and insights to help you stay on top of the space industry.